Overview Statistics Trail Chart Weather Telemetry Raw packets
 

This is the latest recevied weather packets stored in our database for station/object WX0ABE-13. If no packets are shown the sender has not sent any weather packets the latest 10 day(s).

<< 77 78 79 80 81 82 83 >>
Time Temp. Humidity Pressure Rain* Wind** Luminosity Snow
1787792031 26.67° C 57% 1021.7 hPa 0 mm - 51 W/m² -
1787791730 26.67° C 56% 1021.6 hPa 0 mm - 55 W/m² -
1787791426 26.67° C 55% 1021.9 hPa 0 mm - 49 W/m² -
1787791122 27.22° C 53% 1021.8 hPa 0 mm - 48 W/m² -
1787790816 27.22° C 53% 1021.6 hPa 0 mm - 48 W/m² -
1787790516 27.78° C 51% 1021.8 hPa 0 mm - 53 W/m² -
1787790212 27.78° C 50% 1021.7 hPa 0 mm - 67 W/m² -
1787789908 27.78° C 51% 1021.6 hPa 0 mm - 91 W/m² -
1787789610 27.78° C 51% 1021.3 hPa 0 mm - 106 W/m² -
1787789307 27.78° C 52% 1021.4 hPa 0 mm - 95 W/m² -
1787789002 27.78° C 51% 1021.3 hPa 0 mm - 74 W/m² -
1787788699 27.78° C 51% 1021.7 hPa 0 mm - 51 W/m² -
1787788400 27.78° C 49% 1021.8 hPa 0 mm - 46 W/m² -
1787788095 27.78° C 49% 1021.7 hPa 0 mm - 50 W/m² -
1787787790 27.78° C 48% 1021.9 hPa 0 mm - 58 W/m² -
1787787488 27.78° C 47% 1021.9 hPa 0 mm - 67 W/m² -
1787787183 28.33° C 46% 1021.9 hPa 0 mm - 76 W/m² -
1787786883 28.33° C 43% 1021.9 hPa 0 mm - 86 W/m² -
1787786578 28.89° C 43% 1021.9 hPa 0 mm - 95 W/m² -
1787786273 28.89° C 43% 1021.8 hPa 0 mm - 105 W/m² -
1787785969 28.89° C 43% 1021.7 hPa 0 mm - 116 W/m² -
1787785664 28.89° C 42% 1021.8 hPa 0 mm - 128 W/m² -
1787785364 28.89° C 43% 1021.8 hPa 0 mm - 136 W/m² -
1787785063 29.44° C 39% 1021.8 hPa 0 mm - 145 W/m² -
1787784758 29.44° C 41% 1021.7 hPa 0 mm - 156 W/m² -

* Rain latest hour (hover to see other rain measurements)
** Current wind speed in m/s (hover to see current wind gust speed)